Location: Unspecified
(0.0000°N, 0.0000°E)
Time: 16:59:42
(UTC+00:00)

Courier 1B Rocket - Pass Details

Date: 17 April 2021
Orbit: 920 x 1202 km, 28.3° (Epoch: 14 May)

Event Time Altitude Azimuth Distance (km) Brightness Sun altitude
Exits shadow 04:42:58 17° 300° (WNW) 2,604 6.8 -18.8°
Maximum altitude 04:49:14 90° 354° (N) 1,159 5.3 -17.3°
Drops below altitude 10° 04:56:38 10° 120° (ESE) 2,964 8.2 -15.5°
Sets 04:59:19 0° 120° (ESE) 3,882 8.9 -14.8°
